Location: Chaumontel
(49.1247°N, 2.4324°E)
Time: 06:29:30
(UTC+00:00)

Cosmos 2333 Rocket - Visible Passes

Search period start: 24 September 2023 00:00
Search period end: 04 October 2023 00:00
Orbit: 840 x 861 km, 70.8° (Epoch: 23 September)

Date Brightness Start Highest point End Pass type
(mag) Time Alt. Az. Time Alt. Az. Time Alt. Az.
24 Sep 5.3 01:14:40 10° N 01:16:10 11° NNE 01:17:41 10° NE visible
24 Sep 3.9 02:57:15 10° NNW 03:02:23 33° NE 03:07:31 10° ESE visible
24 Sep 2.3 04:41:23 10° NW 04:46:57 54° WSW 04:52:30 10° S visible
24 Sep 2.8 19:38:17 10° SW 19:43:51 59° WNW 19:49:29 10° NNE visible
24 Sep 4.9 21:25:55 10° WNW 21:29:24 16° NNW 21:32:54 10° N visible
25 Sep 5.3 01:02:20 10° N 01:03:49 11° NNE 01:05:19 10° NE visible
25 Sep 3.9 02:44:55 10° NNW 02:50:02 33° NE 02:55:10 10° ESE visible
25 Sep 2.3 04:29:02 10° NW 04:34:36 54° WSW 04:40:10 10° S visible
25 Sep 2.8 19:25:56 10° SW 19:31:31 59° WNW 19:37:09 10° NNE visible
25 Sep 4.9 21:13:34 10° WNW 21:17:03 16° NNW 21:20:34 10° N visible
26 Sep 5.2 00:49:58 10° N 00:51:29 11° NNE 00:52:59 10° NE visible
26 Sep 3.9 02:32:35 10° NNW 02:37:42 32° NE 02:42:49 10° ESE visible
26 Sep 2.3 04:16:41 10° NW 04:22:16 55° WSW 04:27:50 10° S visible
26 Sep 2.8 19:13:36 10° SW 19:19:10 59° WNW 19:24:48 10° NNE visible
26 Sep 4.9 21:01:13 10° WNW 21:04:42 16° NNW 21:08:13 10° N visible
27 Sep 5.2 00:37:38 10° N 00:39:08 11° NNE 00:40:38 10° NE visible
27 Sep 3.8 02:20:13 10° NNW 02:25:21 32° NE 02:30:28 10° ESE visible
27 Sep 2.3 04:04:20 10° NW 04:09:54 55° WSW 04:15:29 10° S visible
27 Sep 2.8 19:01:15 10° SW 19:06:50 59° WNW 19:12:28 10° NNE visible
27 Sep 4.9 20:48:51 10° WNW 20:52:22 16° NNW 20:55:53 10° N visible
28 Sep 5.2 00:25:17 10° N 00:26:47 11° NNE 00:28:17 10° NE visible
28 Sep 3.8 02:07:53 10° NNW 02:13:01 32° NE 02:18:08 10° ESE visible
28 Sep 2.3 03:51:59 10° NW 03:57:35 55° WSW 04:03:09 10° S visible
28 Sep 2.8 18:48:54 10° SW 18:54:29 59° WNW 19:00:07 10° NNE visible
28 Sep 4.9 20:36:30 10° WNW 20:40:01 16° NNW 20:43:32 10° N visible
29 Sep 5.2 00:12:57 10° N 00:14:27 11° NNE 00:15:56 10° NE visible
29 Sep 3.8 01:55:32 10° NNW 02:00:40 32° NE 02:05:47 10° ESE visible
29 Sep 2.2 03:39:39 10° NW 03:45:13 55° WSW 03:50:48 10° S visible
29 Sep 2.8 18:36:33 10° SW 18:42:08 59° WNW 18:47:47 10° NNE visible
29 Sep 4.9 20:24:10 10° WNW 20:27:40 16° NNW 20:31:12 10° N visible
30 Sep 5.1 00:00:36 10° N 00:02:06 11° NNE 00:03:36 10° NE visible
30 Sep 3.8 01:43:11 10° NNW 01:48:19 32° NE 01:53:26 10° ESE visible
30 Sep 2.2 03:27:18 10° NW 03:32:53 55° WSW 03:38:27 10° S visible
30 Sep 2.9 18:24:13 10° SW 18:29:47 60° WNW 18:35:26 10° NNE visible
30 Sep 4.9 20:11:49 10° WNW 20:15:19 16° NNW 20:18:51 10° N visible
30 Sep 5.1 23:48:16 10° N 23:49:45 11° NNE 23:51:15 10° NE visible
01 Oct 3.8 01:30:51 10° NNW 01:43:26 - ESE 01:35:15 31° NNE visible
01 Oct 3.7 03:14:57 10° NW 03:25:47 12° S 03:26:07 10° S visible
01 Oct 2.9 18:11:52 10° SW 18:17:27 60° WNW 18:23:05 10° NNE visible
01 Oct 4.9 19:59:28 10° WNW 20:02:59 16° NNW 20:06:31 10° N visible
01 Oct 5.1 23:35:55 10° N 23:37:25 11° NNE 23:38:54 10° NE visible
02 Oct 4.2 01:18:30 10° NNW 01:21:00 22° N 01:21:00 22° N visible
02 Oct 4.5 03:02:37 10° NW 03:02:54 11° NW 03:02:54 11° NW visible
02 Oct 2.9 17:59:31 10° SW 18:05:06 60° WNW 18:10:45 10° NNE visible
02 Oct 4.8 19:47:07 10° WNW 19:50:38 16° NNW 19:54:10 10° N visible
02 Oct 5.0 23:23:34 10° N 23:25:04 11° NNE 23:25:48 11° NNE visible
03 Oct 4.5 01:06:10 10° NNW 01:07:44 17° N 01:07:44 17° N visible
03 Oct 2.9 17:47:10 10° SW 17:52:45 60° WNW 17:58:24 10° NNE visible
03 Oct 4.8 19:34:46 10° WNW 19:38:17 16° NNW 19:41:50 10° N visible
03 Oct 5.0 23:11:13 10° N 23:12:42 11° NNE 23:12:52 11° NNE visible
